Theta_e
359 359 361 357 350 359 361 359 353 355 353 353 353 354 354 352 354 356 356 362 361 362 360 359 360 362 360 359 357 356 354 357 357 355 354 355 357 355 353 357 355 357 355
360 358 360 355 354 351 358 359 357 356 352 349 351 352 355 354 355 357 356 361 362 363 362 361 363 363 361 359 359 358 356 354 358 358 357 357 357 358 354 355 357 355 357
361 360 356 353 357 353 355 359 359 354 349 348 349 350 354 355 354 356 357 358 359 362 364 363 364 365 365 362 361 362 361 360 360 360 360 359 356 359 359 357 356 357 358
361 359 355 352 353 358 351 354 354 351 348 347 347 349 351 353 354 357 357 357 357 357 362 364 363 363 364 363 363 364 362 361 360 359 359 360 359 359 357 358 358 358 358
360 358 353 353 357 352 353 349 349 350 346 346 346 349 350 350 352 352 355 357 359 358 356 362 361 362 362 360 363 364 364 361 361 360 359 360 360 359 358 358 357 357 357
359 357 355 356 357 351 350 349 350 349 347 347 346 346 348 349 350 352 354 355 356 357 358 359 360 360 360 361 362 363 364 362 361 361 360 359 359 358 357 358 357 357 357
358 359 354 362 363 355 354 355 352 351 346 347 345 344 346 349 350 351 354 353 354 355 357 357 357 356 356 361 360 360 362 362 361 360 359 358 357 357 357 357 355 355 355
359 356 356 355 359 359 360 359 356 347 346 345 341 339 334 339 344 347 350 350 351 352 353 355 357 360 360 357 360 359 360 361 361 360 359 358 356 356 356 355 354 354 354
359 359 357 356 359 359 362 360 360 355 344 347 352 338 333 331 338 346 350 351 353 352 354 356 358 360 363 361 361 361 361 358 361 361 360 359 356 355 355 355 355 353 354
357 358 360 360 366 364 365 359 358 359 362 355 361 354 353 349 338 336 347 350 355 356 358 356 355 358 361 360 362 361 358 354 358 360 361 360 358 357 356 356 356 355 354
357 356 360 360 361 363 362 363 363 362 361 359 357 360 355 349 358 345 337 342 348 349 352 355 355 354 357 360 359 358 357 355 355 356 357 359 360 359 360 359 358 358 358
354 358 357 361 363 362 364 363 363 360 358 358 363 358 346 349 350 346 347 345 343 346 349 352 352 351 352 353 357 356 357 355 353 352 352 355 356 358 360 360 361 360 358
352 360 363 363 360 365 363 363 362 363 358 355 358 352 350 359 359 358 348 343 340 343 346 350 351 351 354 355 355 356 359 353 349 346 346 347 350 352 356 358 360 357 356
356 366 364 361 362 361 363 365 362 356 361 357 357 359 354 353 361 351 347 342 338 340 342 348 351 354 353 353 355 354 355 351 349 345 343 343 345 348 351 352 352 350 348
357 361 362 361 362 362 365 365 360 357 360 359 356 360 361 356 360 358 360 359 345 337 335 345 346 359 353 354 355 355 356 353 350 346 342 341 342 344 346 346 345 343 343
364 362 360 360 362 363 363 366 362 360 360 356 354 358 357 353 355 363 353 361 354 349 338 344 346 353 355 352 355 356 356 350 348 346 342 341 341 342 342 343 342 342 341
356 357 363 361 361 361 362 363 361 360 357 356 357 356 355 358 353 359 362 355 354 355 345 345 347 352 354 353 354 356 356 356 361 344 341 340 338 339 339 340 340 341 338
354 357 360 358 362 360 362 360 357 356 354 353 354 356 355 354 358 360 359 357 356 356 347 345 348 347 351 356 355 355 353 353 356 345 340 338 336 334 334 336 338 334 330
359 359 359 359 358 358 359 360 359 356 356 355 355 356 356 356 356 358 356 355 352 353 350 345 344 347 348 350 352 353 351 351 346 343 338 336 334 334 333 333 332 326 324
352 355 357 355 357 358 358 357 357 357 357 357 357 356 355 356 355 356 355 355 356 350 349 348 345 344 344 351 350 345 345 348 347 346 344 340 340 336 334 332 330 327 323
346 346 348 351 354 355 354 356 357 357 357 356 355 354 356 353 345 349 352 353 357 349 344 342 344 343 340 342 344 345 343 355 348 350 347 347 346 346 343 334 338 333 327
344 346 345 345 347 347 337 334 344 359 356 355 356 355 356 347 344 336 336 337 350 355 348 344 343 342 345 347 348 344 344 340 337 349 345 344 348 345 345 347 340 337 326
343 344 344 345 346 349 328 326 331 354 356 356 356 355 353 351 346 353 335 332 335 333 338 353 348 348 347 350 354 352 350 344 341 349 347 341 345 343 347 344 332 328 325
343 341 341 346 346 346 326 321 325 343 352 352 352 354 352 350 350 346 345 344 347 349 348 349 351 353 356 356 354 352 352 353 350 346 349 338 343 342 346 348 329 326 323
340 337 338 340 339 344 321 319 323 336 342 346 347 348 346 340 330 322 338 339 341 349 337 328 331 329 326 326 338 351 345 346 341 342 344 341 341 341 343 343 345 325 321
344 344 343 340 334 344 320 315 321 337 339 342 346 341 330 335 323 321 335 337 337 342 352 351 352 343 336 344 326 348 349 344 341 341 346 338 339 340 336 343 344 341 338
Wind_Speed
7 7 6 6 7 9 5 5 5 5 6 7 7 7 7 6 5 4 4 15 13 13 14 13 12 12 11 11 10 11 11 11 10 10 10 10 10 10 10 11 10 10 9
9 9 7 8 6 7 9 8 4 7 7 8 8 7 7 6 6 5 6 5 13 12 13 14 13 13 13 12 12 13 13 13 11 11 11 11 11 10 11 11 11 10 10
9 9 9 8 8 6 7 6 6 6 7 7 7 7 7 8 7 7 7 5 9 12 12 14 13 13 14 14 14 14 13 13 13 12 13 13 12 11 12 12 13 12 12
10 10 8 9 8 9 9 9 9 7 8 7 7 7 7 8 7 8 8 6 5 5 14 15 14 14 14 15 15 15 15 14 14 14 13 14 14 14 14 14 15 14 14
12 10 9 8 9 9 9 8 8 7 8 8 8 8 8 8 9 9 10 8 7 7 7 16 17 14 15 16 15 16 16 16 16 16 16 16 16 16 15 15 16 15 16
12 11 9 9 10 9 9 9 10 9 8 8 8 8 8 9 10 9 9 10 10 9 9 9 8 11 19 18 16 16 16 16 16 16 18 17 17 17 17 16 16 16 17
14 13 11 9 9 10 10 11 10 10 9 8 8 8 8 10 11 10 10 11 11 9 10 9 8 8 7 18 17 17 18 18 17 17 17 17 17 17 17 17 16 16 18
15 13 13 11 13 9 10 10 11 9 9 9 8 8 9 11 12 12 12 11 12 10 11 12 11 11 10 9 10 17 17 17 18 18 18 17 16 16 17 18 17 17 16
16 16 15 13 11 11 9 11 11 13 9 10 12 8 6 7 6 5 11 10 12 10 10 11 11 11 11 11 11 11 15 15 16 16 17 17 16 16 17 17 17 16 15
17 16 16 14 12 9 10 11 11 11 9 7 5 9 9 2 2 5 6 5 6 8 9 8 10 10 11 11 13 13 9 9 13 14 15 15 15 14 16 17 17 16 15
17 18 17 17 15 11 11 12 11 12 10 9 8 5 9 9 9 7 10 7 8 8 8 8 8 8 8 8 9 10 12 13 13 13 15 16 14 13 15 17 16 15 15
14 17 18 16 16 14 14 13 14 14 12 10 8 8 9 8 6 7 8 11 12 10 8 7 9 9 9 10 11 13 6 8 9 11 13 14 13 13 15 17 16 13 10
13 15 18 16 15 15 15 14 14 13 13 12 12 11 12 8 8 7 9 12 12 11 7 8 7 9 8 8 10 5 9 11 10 10 11 13 13 14 14 14 11 9 9
15 15 17 18 19 18 17 15 10 13 13 12 14 12 9 9 7 11 12 12 12 11 10 12 4 7 7 9 8 6 10 10 10 8 10 11 10 10 10 5 5 5 6
14 16 18 18 19 19 18 16 14 15 12 13 13 13 10 10 8 10 9 8 10 11 12 7 6 3 4 7 4 8 10 2 6 5 4 4 5 4 5 7 7 7 8
15 12 17 19 19 19 18 17 14 15 15 13 12 13 12 10 11 8 10 8 9 9 12 8 8 5 5 7 7 6 8 2 7 7 5 7 8 9 8 8 9 10 9
11 15 16 18 19 19 19 17 17 16 17 16 15 13 15 14 10 9 8 9 9 8 10 10 8 5 6 8 9 7 7 6 3 7 7 7 9 10 11 12 11 9 7
16 15 16 17 18 18 17 19 19 17 18 17 16 16 15 11 13 12 9 11 10 9 10 11 8 6 9 7 6 7 6 5 5 5 6 7 7 8 8 8 7 6 6
16 18 18 17 18 15 16 15 17 18 17 17 17 16 14 14 11 9 11 8 9 8 8 9 9 6 5 5 7 6 5 5 2 6 6 6 6 6 6 6 7 7 7
11 13 15 13 15 16 14 15 17 17 16 15 15 14 15 14 13 13 10 11 10 10 10 9 9 5 5 8 6 7 6 6 6 7 8 5 9 9 10 8 9 9 7
9 11 14 13 14 14 11 14 17 18 17 15 14 15 15 11 11 11 10 12 10 10 7 7 9 6 6 7 8 6 7 4 5 7 6 7 8 10 9 12 11 13 10
7 9 9 13 13 12 10 9 14 14 13 13 13 15 14 11 10 10 8 6 8 10 9 10 9 9 10 9 9 8 7 5 7 10 8 7 5 7 6 7 6 9 10
7 8 11 11 11 11 7 9 13 13 14 14 12 14 12 9 10 13 11 8 10 10 10 11 12 10 9 10 8 6 7 6 9 4 5 8 5 7 7 5 14 13 11
8 7 8 8 10 9 8 7 5 7 8 10 6 10 9 8 7 6 5 7 13 14 15 13 14 12 11 8 8 8 8 7 9 7 5 8 7 8 7 8 15 13 11
7 7 6 7 7 10 9 9 7 4 10 10 8 7 5 4 4 1 2 8 12 12 11 16 16 11 5 6 7 6 7 7 9 6 5 9 8 8 7 8 9 16 13
4 5 7 8 12 11 10 9 8 6 7 5 8 7 8 4 9 6 3 9 11 13 10 9 8 11 12 13 10 11 9 10 10 7 8 8 9 8 7 9 8 9 8
Wind_Direction
179 181 194 212 191 155 212 240 204 189 195 218 224 230 238 239 270 272 296 166 194 212 221 223 221 222 227 228 232 238 240 245 238 242 246 245 248 244 250 250 251 255 245
174 176 194 181 202 200 184 193 207 195 203 216 214 232 237 256 248 280 285 180 189 206 218 226 226 223 227 231 233 239 242 244 249 242 245 252 264 236 245 255 251 257 254
183 208 193 207 166 190 216 182 205 202 212 215 233 223 240 243 264 255 272 287 161 194 213 226 234 230 227 232 234 234 237 243 246 248 243 240 241 241 239 244 250 251 251
199 211 202 198 198 188 197 187 203 201 212 213 217 230 225 246 240 256 255 274 256 239 189 212 226 235 234 234 237 239 236 237 242 243 244 240 239 238 238 240 242 245 249
206 219 220 202 197 202 195 195 203 217 204 222 218 222 236 244 237 238 246 256 254 268 271 181 205 223 237 243 244 241 240 235 235 240 242 240 239 240 238 239 241 239 246
208 207 220 219 197 213 201 204 202 192 227 218 232 225 231 236 242 244 247 246 243 247 250 262 222 219 217 232 240 243 241 241 235 234 241 243 241 241 240 240 238 239 238
208 206 227 194 217 225 216 198 199 211 208 222 228 233 245 237 248 252 245 243 256 239 248 260 257 259 244 211 222 232 242 246 239 234 239 242 242 238 240 243 238 238 241
209 214 221 223 204 221 225 219 211 215 214 204 224 236 236 223 223 229 245 254 258 261 257 237 243 258 263 272 251 214 231 241 244 241 240 238 237 236 236 240 241 239 238
211 210 209 228 218 212 220 212 219 225 223 206 210 246 230 239 277 248 217 241 256 251 254 250 250 247 249 259 271 249 209 223 240 250 245 243 239 233 232 236 238 240 240
215 213 217 213 224 231 214 227 213 211 241 227 214 233 245 249 115 306 296 239 239 248 253 269 264 254 247 250 248 258 278 219 233 242 252 254 244 238 236 236 237 237 238
216 217 214 219 216 209 231 230 230 223 208 223 234 230 230 233 239 252 260 269 247 228 239 220 250 265 249 246 258 246 212 232 238 241 245 249 250 246 240 237 236 233 236
203 215 217 217 218 219 211 219 222 229 228 234 221 229 240 230 219 227 244 264 262 263 247 298 287 274 268 264 245 255 252 245 237 243 248 249 244 248 252 245 238 230 221
212 201 211 211 215 219 220 212 214 216 217 224 225 237 232 229 233 245 246 261 270 268 257 223 245 252 263 276 272 247 208 228 238 246 248 250 250 249 250 254 224 200 222
204 205 199 214 215 217 219 223 211 217 213 216 225 232 249 243 234 237 242 260 267 269 256 253 263 241 259 261 324 328 277 227 223 237 254 248 241 244 235 193 173 196 230
213 201 202 204 217 217 217 216 225 218 218 216 220 226 233 246 236 245 263 275 262 267 267 285 242 222 267 279 291 293 294 178 190 252 249 214 183 185 170 175 192 210 232
231 213 215 213 210 213 215 217 222 222 215 216 221 217 221 240 243 231 235 247 236 244 271 265 252 205 242 292 271 255 266 282 200 228 210 180 163 168 183 193 204 217 228
218 230 227 222 219 214 213 213 220 229 216 223 229 217 222 222 234 231 229 233 229 228 243 261 272 294 260 248 274 257 270 284 248 223 207 189 185 188 193 202 211 218 234
224 216 230 233 232 223 216 216 221 217 225 226 225 228 225 222 212 229 226 229 232 232 243 257 277 270 243 258 257 264 262 265 290 146 200 203 198 203 213 215 220 227 243
236 229 217 224 229 230 227 222 227 229 226 226 227 228 224 224 226 216 218 215 223 234 223 249 258 231 275 256 227 223 247 241 257 161 212 219 228 225 228 223 223 223 238
255 251 247 243 237 233 228 234 228 223 223 226 228 230 228 224 220 215 215 214 233 226 217 231 241 251 247 272 248 267 210 227 223 204 217 237 194 204 227 227 228 232 234
255 258 256 251 245 244 240 232 233 226 219 218 221 229 229 225 222 224 210 211 216 218 225 223 242 231 232 236 246 249 252 262 204 252 231 215 215 210 207 215 238 218 221
255 249 254 244 245 249 234 211 239 238 228 214 214 221 225 211 217 205 219 269 232 228 214 226 229 234 234 233 236 248 234 228 239 201 226 242 219 229 236 225 208 172 195
222 239 234 247 249 246 191 239 230 236 230 221 217 216 209 211 215 210 204 234 241 248 240 227 241 240 235 233 257 252 260 229 249 151 217 256 209 236 237 159 160 167 184
231 223 238 239 241 232 175 206 253 250 236 235 219 213 200 189 199 213 182 211 232 235 231 239 239 247 252 250 231 243 251 256 259 251 210 263 246 232 229 235 165 176 185
197 207 227 228 218 243 199 200 181 235 248 228 205 189 140 124 91 43 262 234 244 240 222 221 236 262 323 288 243 246 241 229 252 263 209 259 261 249 239 237 190 179 183
187 210 203 204 237 229 196 205 181 244 219 213 187 167 166 115 105 158 227 228 252 247 238 241 231 247 246 240 216 242 245 249 252 266 185 203 249 257 246 221 235 155 179